Theta_e
311 311 311 311 311 311 315 324 320 321 327 323 315 319 320 322 323 322 318 322 323 323 322 323 323 324 325 328 322 321 317 314 319 320 320 320 318 317 314 317 317 312 313 317
311 312 313 313 312 311 317 321 320 321 328 318 314 314 319 318 316 318 317 320 319 320 323 326 323 324 327 329 326 327 319 317 320 324 321 319 321 315 312 310 310 314 318 320
311 312 313 314 313 311 314 319 315 319 319 316 313 315 316 316 318 318 316 318 319 320 321 322 325 328 328 328 327 326 323 314 321 324 323 319 321 320 314 315 314 316 314 319
311 311 313 314 314 313 314 317 313 314 313 314 314 314 314 318 319 318 318 317 317 322 323 326 329 327 325 326 327 325 321 326 320 318 320 319 318 319 318 315 316 319 322 315
311 311 313 313 314 314 312 315 315 314 313 314 311 311 315 318 318 318 318 319 319 320 325 327 328 326 325 326 324 325 320 325 324 328 325 324 324 320 319 316 317 315 317 317
311 311 313 313 314 315 314 315 315 315 311 310 308 314 316 317 317 317 318 319 317 319 322 321 322 322 323 322 325 325 324 324 325 328 323 324 328 322 321 320 328 326 319 323
311 311 312 313 314 315 314 314 315 314 310 310 313 315 315 316 316 317 318 319 320 320 322 323 320 320 321 320 320 322 322 322 321 326 326 332 326 324 325 329 329 328 329 330
311 311 310 313 313 314 314 314 314 313 309 312 313 314 313 315 316 316 317 319 319 320 321 314 316 315 317 320 320 319 318 320 324 327 326 326 328 329 330 329 328 328 329 329
311 311 310 312 313 313 313 313 313 313 312 310 314 313 313 313 312 313 317 319 319 321 314 316 318 319 318 321 322 316 316 316 319 321 328 330 326 329 327 328 327 327 328 327
311 311 311 310 311 312 313 313 313 313 312 313 313 312 312 313 313 311 314 316 317 318 314 318 318 319 320 322 322 321 317 316 321 321 323 323 326 326 327 332 330 327 328 327
309 311 311 310 310 310 312 312 313 313 313 313 312 313 313 314 313 312 314 314 315 314 316 318 318 319 319 320 318 318 318 319 318 319 324 326 325 323 327 326 327 328 328 328
305 309 311 310 311 310 310 311 312 312 312 313 312 312 313 312 313 312 313 313 314 315 313 315 314 318 316 317 322 318 322 318 322 319 320 320 325 324 322 322 326 326 327 327
305 306 310 311 310 310 308 311 311 312 311 312 313 315 315 314 314 313 313 314 315 316 316 315 313 318 315 318 317 320 318 320 319 319 319 320 321 318 320 322 324 324 324 325
305 305 310 310 310 310 309 311 311 312 312 311 312 313 312 314 314 314 315 315 315 315 315 316 314 318 316 314 315 316 317 317 316 316 315 317 317 320 320 319 320 321 322 324
304 305 309 310 310 309 310 311 312 312 312 311 312 313 314 313 315 317 316 316 314 314 315 316 317 315 315 314 313 313 316 316 315 317 316 316 317 317 318 319 318 318 319 322
304 305 309 310 310 309 310 312 314 313 314 313 311 312 313 315 317 317 319 317 314 313 315 315 317 318 318 319 318 315 317 317 317 316 317 316 317 317 318 318 318 317 318 322
306 309 310 310 309 309 310 311 313 312 314 313 311 309 312 313 316 317 318 317 315 315 316 316 316 317 317 318 319 316 317 316 317 319 318 318 320 320 320 319 319 319 319 320
310 311 310 308 309 312 313 314 313 312 314 313 312 308 311 315 316 315 316 317 317 317 317 316 315 316 315 318 314 316 316 316 317 319 318 318 318 319 320 320 321 320 321 323
310 309 309 312 314 314 316 314 314 313 314 314 313 312 308 313 315 315 314 315 312 314 313 315 317 317 318 316 316 316 316 316 317 317 316 316 317 318 319 320 321 321 322 323
311 311 314 314 316 317 313 314 313 312 313 313 312 311 308 312 314 313 313 313 311 311 312 315 316 316 315 316 316 315 317 318 318 318 317 318 317 317 318 318 320 322 322 321
315 314 315 315 314 313 313 315 314 312 313 311 310 310 308 312 311 310 314 311 313 316 315 315 317 318 316 316 315 317 318 318 318 319 319 319 319 319 319 319 320 321 321 322
313 312 312 312 311 313 315 316 315 313 313 313 312 313 312 313 314 315 314 314 314 315 314 315 318 314 315 315 315 317 317 318 319 319 318 318 319 320 320 320 320 321 321 321
310 312 312 313 314 314 317 314 313 312 313 314 314 313 315 313 315 314 313 315 315 314 315 317 317 315 315 315 314 317 318 319 318 318 318 318 318 319 320 320 321 321 321 321
311 313 309 314 313 312 311 311 311 315 315 315 315 315 314 313 312 311 314 313 314 316 314 314 313 313 316 314 314 317 317 318 318 317 317 318 318 319 319 320 321 319 319 320
311 313 312 311 313 314 315 315 315 316 316 316 311 310 313 309 311 309 312 316 313 312 313 308 312 315 315 313 315 317 317 318 317 317 317 318 318 320 320 320 320 320 320 319
310 312 312 315 314 315 316 317 317 316 315 313 313 311 311 311 309 313 313 312 310 311 309 312 314 315 313 313 314 316 317 319 318 317 318 318 317 319 321 320 320 321 323 324
313 314 314 313 313 314 314 315 317 317 314 312 312 314 314 308 310 311 307 309 309 312 313 314 314 314 313 313 314 315 316 319 318 318 318 317 317 317 321 322 322 321 322 322
Wind_Speed
27 29 30 29 26 24 5 4 3 4 5 5 3 2 2 5 4 7 5 3 3 2 3 2 2 3 5 15 2 5 3 4 4 11 2 2 4 7 5 5 5 2 3 8
26 29 30 27 24 23 12 4 3 9 8 3 2 4 3 3 8 6 7 5 4 4 2 1 1 4 3 20 7 2 4 0 3 9 6 4 3 5 6 4 3 7 6 8
25 28 30 28 24 19 11 3 2 8 12 6 4 3 3 5 8 4 5 4 5 5 5 4 3 5 3 8 9 7 3 3 6 6 6 1 5 4 4 6 4 5 7 10
25 28 29 29 24 17 7 6 3 3 2 5 3 2 2 2 5 7 11 5 4 2 1 2 2 5 6 5 12 6 4 3 2 5 8 4 6 9 7 9 8 9 12 10
24 28 30 29 26 17 18 5 5 4 3 4 4 5 2 2 4 2 2 3 7 3 2 2 3 1 2 5 6 5 4 2 1 4 5 4 6 8 9 8 5 9 6 6
21 25 27 30 28 23 13 11 8 3 6 3 2 2 3 3 5 1 1 4 2 3 2 15 18 14 14 5 3 2 0 2 3 5 4 8 6 3 5 2 4 2 5 3
17 21 23 26 27 25 20 17 8 4 1 3 2 2 3 2 4 4 8 9 2 3 16 14 7 7 11 10 12 11 5 3 4 5 3 7 3 4 3 9 1 3 3 9
13 17 19 20 23 21 19 17 10 5 2 1 3 6 4 9 8 4 4 4 6 12 8 2 3 4 5 5 5 6 5 4 2 4 6 5 3 2 3 3 3 3 2 8
11 13 15 14 16 19 17 16 14 5 2 2 1 2 3 2 3 6 5 7 11 7 3 2 5 5 4 4 1 4 5 3 3 2 3 6 6 2 6 3 4 4 2 5
10 10 11 13 12 14 15 15 14 7 3 2 2 3 2 2 1 2 5 9 6 9 2 2 4 5 3 4 5 4 2 2 4 4 4 7 3 5 8 4 5 4 3 5
10 9 9 11 12 11 12 12 14 11 6 9 6 4 6 4 3 1 6 5 3 4 4 1 2 1 2 2 3 4 6 5 4 2 3 7 7 4 1 5 10 11 11 14
10 9 8 9 12 12 11 11 13 14 7 7 17 13 11 13 11 8 3 1 3 1 3 1 0 2 2 1 3 3 2 5 3 7 5 3 6 10 18 17 17 17 19 21
10 9 8 8 11 12 11 13 13 14 8 11 3 4 1 5 7 9 4 4 4 2 4 2 2 3 3 2 4 2 2 3 2 2 3 5 8 24 21 17 14 14 16 19
10 8 8 8 10 13 11 13 9 8 5 3 4 6 13 6 7 11 13 13 9 8 10 4 3 2 7 4 4 4 6 1 3 6 10 25 22 9 20 18 18 23 21 17
10 9 7 7 9 11 11 12 4 4 5 4 12 12 5 2 2 6 11 15 20 16 3 3 3 4 2 4 1 4 11 10 5 10 20 21 22 34 28 24 27 28 28 27
9 6 6 7 9 8 10 3 3 3 6 5 4 8 3 2 5 7 8 9 14 13 6 6 6 15 7 3 4 3 16 22 25 21 31 28 24 29 34 38 40 38 29 23
5 4 5 7 8 6 5 2 2 5 3 4 6 8 4 7 7 4 5 6 8 10 6 6 6 8 8 3 14 10 22 25 22 17 18 19 21 23 24 25 26 24 27 27
3 4 6 6 7 8 2 2 4 6 2 2 2 5 8 3 4 3 3 3 4 5 4 3 4 3 5 3 3 7 10 15 17 11 16 21 25 26 28 26 23 23 23 22
5 5 4 4 2 1 1 4 7 4 3 2 3 2 4 5 3 4 3 2 2 2 3 3 2 2 4 3 5 14 19 17 23 26 27 28 26 26 27 26 23 19 20 20
2 1 1 1 2 2 5 2 2 5 3 3 4 4 4 3 3 3 4 2 1 2 3 4 2 3 7 6 15 22 23 19 21 24 23 27 29 31 31 29 25 22 22 19
2 2 1 1 4 3 2 2 3 3 3 5 6 10 4 4 2 3 2 2 1 2 2 1 3 2 2 11 29 26 24 20 21 23 25 23 26 32 32 32 28 24 23 21
1 2 3 4 3 2 2 3 4 3 4 5 5 6 9 4 5 3 2 2 0 4 4 1 3 2 14 21 29 29 26 28 22 20 21 23 24 26 27 28 27 22 21 21
2 2 3 3 4 2 4 4 3 3 5 7 7 4 4 4 4 2 1 3 5 4 1 3 2 17 19 24 29 30 23 20 20 19 28 27 28 28 25 25 20 17 17 18
2 3 3 4 4 4 5 5 4 4 7 7 9 5 8 6 4 3 3 3 2 2 2 4 4 18 19 24 25 28 25 21 23 25 31 27 29 29 23 21 18 17 16 16
3 4 4 6 10 9 8 11 12 17 19 17 4 2 3 2 2 2 2 2 3 4 3 3 7 15 19 24 25 25 27 27 24 26 34 26 33 12 6 11 16 16 17 18
4 7 4 8 3 9 11 13 18 13 8 3 3 4 2 4 3 3 5 2 5 4 3 8 14 15 19 22 22 27 28 29 18 18 26 25 30 18 7 1 4 6 5 5
5 7 14 18 15 17 23 18 17 8 6 3 4 3 3 2 2 3 4 5 4 5 10 12 12 14 18 19 21 21 30 23 19 16 21 23 20 33 36 25 19 18 17 13
Wind_Direction
2 1 356 353 356 4 30 90 66 7 146 48 34 92 334 350 341 9 29 106 86 8 13 335 262 170 8 349 162 137 209 156 234 233 295 172 183 196 166 134 236 223 165 264
4 6 4 359 0 5 20 64 84 43 159 104 6 325 346 7 19 14 17 40 24 32 44 94 18 30 33 26 39 85 185 358 4 344 359 14 227 196 143 109 82 194 170 256
7 7 11 7 4 8 24 50 59 40 64 66 106 29 360 359 27 46 12 32 68 26 29 20 352 8 348 348 14 7 143 126 165 192 218 199 283 261 221 149 135 204 216 260
10 10 11 14 11 13 32 42 64 47 13 12 43 40 20 26 9 10 17 33 51 311 306 31 16 2 342 353 4 17 82 208 222 238 251 216 242 263 230 202 220 195 242 211
12 12 13 16 19 22 47 62 40 41 55 348 15 360 30 62 339 322 4 55 320 316 205 31 214 208 225 250 331 22 4 266 151 278 267 284 261 256 263 231 227 260 259 257
10 14 15 16 21 30 51 45 33 38 9 9 86 25 344 28 4 280 94 334 276 291 27 315 292 266 272 262 198 245 320 119 49 263 338 311 314 269 258 202 72 320 216 301
3 11 17 20 22 30 38 34 35 26 349 59 69 346 327 310 312 260 303 318 354 330 321 310 282 262 253 255 251 211 176 163 156 243 352 245 205 356 115 112 18 354 331 331
352 3 14 22 27 28 30 32 35 35 79 339 17 345 328 323 315 272 274 276 324 311 309 45 10 337 346 242 238 232 190 132 207 195 210 305 296 81 67 35 296 314 309 325
335 350 4 12 22 27 26 28 26 20 76 256 68 326 317 316 329 331 297 328 333 335 88 114 196 211 211 267 324 59 83 89 132 114 251 241 230 117 311 169 261 207 254 326
317 330 347 358 360 9 16 18 17 10 328 222 202 215 255 274 254 248 303 338 336 7 42 154 185 231 215 203 193 194 8 351 191 228 240 281 312 276 282 160 258 211 254 305
303 306 325 341 349 351 357 357 359 5 314 284 233 229 214 221 242 187 333 348 358 6 52 94 249 197 279 328 256 189 179 183 213 109 186 273 357 3 325 298 317 299 291 297
305 291 301 322 337 344 348 347 345 342 305 279 296 290 265 250 257 264 285 257 296 277 72 323 86 344 352 184 269 324 255 190 204 182 220 276 338 311 313 306 293 300 297 302
307 294 287 303 325 336 338 342 341 349 329 311 328 57 206 223 264 269 221 248 236 214 4 242 224 247 138 233 244 286 299 166 226 9 277 250 281 316 303 307 287 301 297 305
309 296 277 287 318 332 328 337 335 357 337 322 285 299 313 278 244 233 248 261 258 270 298 258 229 224 202 214 232 186 222 237 268 272 306 302 300 311 319 322 310 301 309 297
309 297 281 284 303 320 323 326 317 62 12 294 293 321 146 302 293 279 261 261 253 262 271 213 228 233 216 220 121 231 223 245 235 265 266 263 274 291 287 295 295 300 305 302
308 290 268 281 309 319 336 22 70 24 4 326 310 328 293 328 326 315 296 271 239 226 223 231 232 241 235 249 238 264 251 256 266 266 289 289 287 288 286 288 288 291 293 294
296 280 281 293 305 304 312 297 296 319 313 304 305 309 295 324 302 277 271 252 224 225 238 231 233 230 213 248 267 272 276 287 289 294 293 287 284 288 294 287 285 279 282 282
284 285 296 304 305 312 347 53 269 270 284 294 303 281 315 313 301 297 294 254 245 232 252 258 225 237 220 259 284 331 325 315 301 277 286 286 295 294 294 297 290 277 277 271
292 291 299 318 17 113 322 336 315 225 250 284 232 281 270 322 297 294 291 298 315 289 244 246 175 218 226 225 323 325 324 311 305 306 301 296 289 293 296 293 295 280 276 281
333 239 139 256 280 183 354 348 106 194 231 236 244 239 262 289 327 305 319 319 265 314 248 300 222 257 263 271 328 330 329 320 317 304 293 301 293 290 292 295 284 279 278 280
124 169 177 196 322 309 249 213 200 182 241 225 238 225 243 242 175 250 273 284 316 286 280 174 261 265 260 319 335 332 327 320 323 321 313 306 291 285 285 285 285 276 273 272
187 241 251 262 244 247 249 210 159 210 240 219 211 244 221 240 216 232 222 270 315 259 329 318 276 264 321 322 332 332 330 323 313 318 326 316 300 287 279 277 275 268 267 268
253 205 222 196 196 248 201 216 238 238 214 218 211 229 217 194 204 223 234 239 230 328 277 271 316 289 308 324 333 338 334 327 332 327 332 330 320 314 279 264 258 260 260 256
219 196 251 207 226 226 203 200 211 241 245 265 267 233 186 186 171 177 227 244 315 280 287 238 238 281 317 331 337 340 337 334 334 335 338 332 323 302 274 244 243 253 263 265
233 212 233 228 230 250 254 261 268 275 280 277 249 240 196 142 207 197 288 258 261 230 243 242 297 317 327 338 342 345 335 332 331 338 338 339 349 337 287 237 236 256 272 274
233 229 252 243 269 270 261 263 269 299 278 208 140 77 287 233 164 159 206 205 237 252 224 273 317 320 334 339 344 353 343 345 337 334 354 357 3 28 26 196 248 280 291 301
231 242 238 248 269 272 280 287 286 282 202 196 141 174 245 115 229 228 181 208 220 271 314 312 313 323 332 337 343 356 342 14 18 18 12 20 14 42 68 72 75 73 65 58